map of TBT home
TBT - Airport
Location
City:  Tabatinga, Amazonas, Brazil
Name:Tabatinga International Airport
ICAO:SBTT
IATA:TBT

Details
Type:Airport (Aerodrome, Airfield)
Use:International (customs port of entry)
Latitude:415'20"S (-4.255668)
Longitude:6956'09"W (-69.935827)
Datum:WGS 1984
Elevation:279 ft (85 m)
Variation:8.88W (WMM2015 magnetic declination)
-0.16 annual change
Runways:1
Longest:7054 × 105 ft (2150 × 32 m), paved

Time
Time Zone:UTC-4
Local Time:

Weather
METAR:SBTT 251800Z 04006KT 9999 BKN020 30/23 Q1011
TAF:SBTT 251000Z 2512/2612 34005KT 8000 BKN008 FEW025TCU TX32/2518Z TN20/2606Z
BECMG 2514/2516 33005KT SCT017 FEW025TCU PROB30 2517/2520 4000 SHRA
BECMG 2521/2522 9999 SCT020 FEW025TCU
RMK PEN

Related Locations
Nearby:
Farthest:NTX: 12331 mi / 19845 km
Natuna Ranai, Natuna Island, RI, ID

Find:

   beyond  
but within

Other Information
Maps:
NOTAMs:
Links:
Sources:

  
flag of Brazil
flag of Amazonas
  

Sectional Chart

Flight Planning
at skyvector.com

Satellite Image

Google Maps Satellite view

 

Copyright © 2004-2017 Karl L. Swartz. All rights reserved.
The Great Circle Mapper name and logo are trademarks of the Great Circle Mapper.
All other trademarks mentioned herein belong to their respective owners.
Please see credits for attibutions and further copyright information.

  Follow gcmap on Facebook Follow gcmap on Twitter Follow gcmap on Google+ GCmap on LinkedIn

hCard Microformat

Geo Microformat